Grimsby

*Note: All times are displayed in the local standard time of the station location.
**Rain - Equipment is designed to accurately record liquid precipitation; under conditions when precipitation is not in liquid form, the data displayed may not properly reflect rainfall values.

Date Max Temp
(°C)
Min Temp
(°C)
Avg Temp
(°C)
Rain (mm) Avg RH (%)
Fri, Feb 15, 2019 3.5 -5.2 -0.3 10.2 92.2
Thu, Feb 14, 2019 1.0 -5.3 -2.4 0.8 95.3
Wed, Feb 13, 2019 0.3 -5.6 -3.6 13.4 97.8
Tue, Feb 12, 2019 1.2 -5.9 -3.1 0.6 96.8
Mon, Feb 11, 2019 -2.7 -5.3 -4.1 0.0 93.2
Sun, Feb 10, 2019 -3.9 -12.0 -6.9 0.0 90.5
Sat, Feb 09, 2019 -5.0 -11.4 -8.0 0.0 83.9
DateTime Avg Temp (°C) Rain (mm) RH (%)
Sat, Feb 16, 2019 16:00 -2.4 0.0 71.9
Sat, Feb 16, 2019 15:00 -2.4 0.0 73.6
Sat, Feb 16, 2019 14:00 -3.2 0.0 75.7
Sat, Feb 16, 2019 13:00 -3.5 0.0 77.7
Sat, Feb 16, 2019 12:00 -4.0 0.0 80.0
Sat, Feb 16, 2019 11:00 -4.8 0.0 83.6
Sat, Feb 16, 2019 10:00 -5.0 0.0 84.7
Sat, Feb 16, 2019 09:00 -5.2 0.0 83.9
Sat, Feb 16, 2019 08:00 -5.5 0.0 89.5
Sat, Feb 16, 2019 07:00 -5.1 0.0 89.4
Sat, Feb 16, 2019 06:00 -4.3 0.0 86.1
Sat, Feb 16, 2019 05:00 -4.2 0.0 97.9
Sat, Feb 16, 2019 04:00 -4.5 0.0 98.2
Sat, Feb 16, 2019 03:00 -4.8 0.0 98.3
Sat, Feb 16, 2019 02:00 -4.8 0.0 95.1
Sat, Feb 16, 2019 01:00 -4.8 0.0 92.3
Sat, Feb 16, 2019 00:00 -4.8 0.0 90.4
Fri, Feb 15, 2019 23:00 -5.2 0.0 88.8
Fri, Feb 15, 2019 22:00 -5.1 0.0 87.3
Fri, Feb 15, 2019 21:00 -4.6 0.0 85.5
Fri, Feb 15, 2019 20:00 -3.7 0.0 85.1
Fri, Feb 15, 2019 19:00 -3.2 0.0 84.4
Fri, Feb 15, 2019 18:00 -2.6 0.0 83.6
Fri, Feb 15, 2019 17:00 -1.8 0.0 83.8
Fri, Feb 15, 2019 16:00 -1.5 0.0 90.2
Fri, Feb 15, 2019 15:00 -1.3 0.0 90.8
Fri, Feb 15, 2019 14:00 -0.7 0.0 92.2
Fri, Feb 15, 2019 13:00 0.8 0.0 85.8
Fri, Feb 15, 2019 12:00 1.4 0.0 83.6
Fri, Feb 15, 2019 11:00 2.0 0.0 88.2
Fri, Feb 15, 2019 10:00 2.7 0.2 97.7
Fri, Feb 15, 2019 09:00 3.3 0.0 99.9
Fri, Feb 15, 2019 08:00 3.2 0.2 99.9
Fri, Feb 15, 2019 07:00 3.4 0.4 99.9
Fri, Feb 15, 2019 06:00 3.3 0.8 99.9
Fri, Feb 15, 2019 05:00 3.1 5.0 99.9
Fri, Feb 15, 2019 04:00 2.8 3.6 99.3
Fri, Feb 15, 2019 03:00 2.1 0.0 96.8
Fri, Feb 15, 2019 02:00 0.1 0.0 99.8
Fri, Feb 15, 2019 01:00 -0.3 0.0 99.9
Fri, Feb 15, 2019 00:00 -0.5 0.0 99.9
Thu, Feb 14, 2019 23:00 -1.2 0.0 99.9
Thu, Feb 14, 2019 22:00 -1.7 0.0 99.9
Thu, Feb 14, 2019 21:00 -2.5 0.0 99.9
Thu, Feb 14, 2019 20:00 -3.0 0.0 99.9
Thu, Feb 14, 2019 19:00 -2.5 0.0 99.5
Thu, Feb 14, 2019 18:00 -0.9 0.0 92.8
Thu, Feb 14, 2019 17:00 -0.3 0.0 89.2


asterix Register now to access more data! asterix